"Time","Value","Approval","myLocation"
"2023-11-23 15:00",7.82,"Working","OW287"
"2023-11-23 16:00",7.80595663795664,"Working","OW287"
"2023-11-23 17:00",7.81891327591328,"Working","OW287"
"2023-11-23 18:00",7.82086991386991,"Working","OW287"
"2023-11-23 19:00",7.81282655182655,"Working","OW287"
"2023-11-23 20:00",7.79878318978319,"Working","OW287"
"2023-11-23 21:00",7.78073982773983,"Working","OW287"
"2023-11-23 22:00",7.76069646569647,"Working","OW287"
"2023-11-23 23:00",7.7416531036531,"Working","OW287"
"2023-11-24 00:00",7.72460974160974,"Working","OW287"
"2023-11-24 01:00",7.70756637956638,"Working","OW287"
"2023-11-24 02:00",7.72152301752302,"Working","OW287"
"2023-11-24 03:00",7.73247965547966,"Working","OW287"
"2023-11-24 04:00",7.74943629343629,"Working","OW287"
"2023-11-24 05:00",7.77439293139293,"Working","OW287"
"2023-11-24 06:00",7.78034956934957,"Working","OW287"
"2023-11-24 07:00",7.77230620730621,"Working","OW287"
"2023-11-24 08:00",7.75426284526285,"Working","OW287"
"2023-11-24 09:00",7.73721948321948,"Working","OW287"
"2023-11-24 10:00",7.71917612117612,"Working","OW287"
"2023-11-24 11:00",7.70013275913276,"Working","OW287"
"2023-11-24 12:00",7.6810893970894,"Working","OW287"
"2023-11-24 13:00",7.66404603504604,"Working","OW287"
"2023-11-24 14:00",7.64600267300267,"Working","OW287"
"2023-11-24 15:00",7.63295931095931,"Working","OW287"
"2023-11-24 16:00",7.65791594891595,"Working","OW287"
"2023-11-24 17:00",7.68287258687259,"Working","OW287"
"2023-11-24 18:00",7.71382922482923,"Working","OW287"
"2023-11-24 19:00",7.72278586278586,"Working","OW287"
"2023-11-24 20:00",7.7157425007425,"Working","OW287"
"2023-11-24 21:00",7.69769913869914,"Working","OW287"
"2023-11-24 22:00",7.73665577665578,"Working","OW287"
"2023-11-24 23:00",7.81561241461241,"Working","OW287"
"2023-11-25 00:00",7.83956905256905,"Working","OW287"
"2023-11-25 01:00",7.84152569052569,"Working","OW287"
"2023-11-25 02:00",7.85548232848233,"Working","OW287"
"2023-11-25 03:00",7.85643896643897,"Working","OW287"
"2023-11-25 04:00",7.8323956043956,"Working","OW287"
"2023-11-25 05:00",7.86535224235224,"Working","OW287"
"2023-11-25 06:00",7.96630888030888,"Working","OW287"
"2023-11-25 07:00",7.99826551826552,"Working","OW287"
"2023-11-25 08:00",8.00622215622215,"Working","OW287"
"2023-11-25 09:00",8.0161787941788,"Working","OW287"
"2023-11-25 10:00",8.01013543213543,"Working","OW287"
"2023-11-25 11:00",7.98309207009207,"Working","OW287"
"2023-11-25 12:00",7.95304870804871,"Working","OW287"
"2023-11-25 13:00",7.91600534600535,"Working","OW287"
"2023-11-25 14:00",7.87896198396198,"Working","OW287"
"2023-11-25 15:00",7.84291862191862,"Working","OW287"
"2023-11-25 16:00",7.81187525987526,"Working","OW287"
"2023-11-25 17:00",7.7818318978319,"Working","OW287"
"2023-11-25 18:00",7.75878853578854,"Working","OW287"
"2023-11-25 19:00",7.75274517374517,"Working","OW287"
"2023-11-25 20:00",7.76570181170181,"Working","OW287"
"2023-11-25 21:00",7.80565844965845,"Working","OW287"
"2023-11-25 22:00",7.82661508761509,"Working","OW287"
"2023-11-25 23:00",7.85357172557173,"Working","OW287"
"2023-11-26 00:00",7.86252836352836,"Working","OW287"
"2023-11-26 01:00",7.860485001485,"Working","OW287"
"2023-11-26 02:00",8.00644163944164,"Working","OW287"
"2023-11-26 03:00",8.14639827739828,"Working","OW287"
"2023-11-26 04:00",8.20635491535491,"Working","OW287"
"2023-11-26 05:00",8.21031155331155,"Working","OW287"
"2023-11-26 06:00",8.19026819126819,"Working","OW287"
"2023-11-26 07:00",8.15522482922483,"Working","OW287"
"2023-11-26 08:00",8.11618146718147,"Working","OW287"
"2023-11-26 09:00",8.07913810513811,"Working","OW287"
"2023-11-26 10:00",8.06909474309474,"Working","OW287"
"2023-11-26 11:00",8.05105138105138,"Working","OW287"
"2023-11-26 12:00",8.01900801900802,"Working","OW287"
"2023-11-26 13:00",7.98096465696466,"Working","OW287"
"2023-11-26 14:00",7.9419212949213,"Working","OW287"
"2023-11-26 15:00",7.90287793287793,"Working","OW287"
"2023-11-26 16:00",7.86383457083457,"Working","OW287"
"2023-11-26 17:00",7.82679120879121,"Working","OW287"
"2023-11-26 18:00",7.79474784674785,"Working","OW287"
"2023-11-26 19:00",7.76770448470448,"Working","OW287"
"2023-11-26 20:00",7.74066112266112,"Working","OW287"
"2023-11-26 21:00",7.71461776061776,"Working","OW287"
"2023-11-26 22:00",7.6915743985744,"Working","OW287"
"2023-11-26 23:00",7.67153103653104,"Working","OW287"
"2023-11-27 00:00",7.65348767448767,"Working","OW287"
"2023-11-27 01:00",7.63644431244431,"Working","OW287"
"2023-11-27 02:00",7.62140095040095,"Working","OW287"
"2023-11-27 03:00",7.62635758835759,"Working","OW287"
"2023-11-27 04:00",7.65631422631423,"Working","OW287"
"2023-11-27 05:00",7.66927086427086,"Working","OW287"
"2023-11-27 06:00",7.6702275022275,"Working","OW287"
"2023-11-27 07:00",7.66118414018414,"Working","OW287"
"2023-11-27 08:00",7.64914077814078,"Working","OW287"
"2023-11-27 09:00",7.63509741609742,"Working","OW287"
"2023-11-27 10:00",7.62205405405405,"Working","OW287"
"2023-11-27 11:00",7.63901069201069,"Working","OW287"
"2023-11-27 12:00",7.64996732996733,"Working","OW287"
"2023-11-27 13:00",7.64692396792397,"Working","OW287"
"2023-11-27 14:00",7.63488060588061,"Working","OW287"
"2023-11-27 15:00",7.62083724383724,"Working","OW287"
"2023-11-27 16:00",7.60079388179388,"Working","OW287"
"2023-11-27 17:00",7.60275051975052,"Working","OW287"
"2023-11-27 18:00",7.62070715770716,"Working","OW287"
"2023-11-27 19:00",7.6236637956638,"Working","OW287"
"2023-11-27 20:00",7.61762043362043,"Working","OW287"
"2023-11-27 21:00",7.60757707157707,"Working","OW287"
"2023-11-27 22:00",7.59653370953371,"Working","OW287"
"2023-11-27 23:00",7.58449034749035,"Working","OW287"
"2023-11-28 00:00",7.57044698544699,"Working","OW287"
"2023-11-28 01:00",7.55740362340362,"Working","OW287"
"2023-11-28 02:00",7.54536026136026,"Working","OW287"
"2023-11-28 03:00",7.5673168993169,"Working","OW287"
"2023-11-28 04:00",7.60327353727354,"Working","OW287"
"2023-11-28 05:00",7.69923017523018,"Working","OW287"
"2023-11-28 06:00",7.74618681318681,"Working","OW287"
"2023-11-28 07:00",7.75814345114345,"Working","OW287"
"2023-11-28 08:00",7.75110008910009,"Working","OW287"
"2023-11-28 09:00",7.73405672705673,"Working","OW287"
"2023-11-28 10:00",7.71701336501336,"Working","OW287"
"2023-11-28 11:00",7.69497000297,"Working","OW287"
"2023-11-28 12:00",7.67192664092664,"Working","OW287"
"2023-11-28 13:00",7.64888327888328,"Working","OW287"
"2023-11-28 14:00",7.62483991683992,"Working","OW287"
"2023-11-28 15:00",7.60379655479655,"Working","OW287"
"2023-11-28 16:00",7.58475319275319,"Working","OW287"
"2023-11-28 17:00",7.59970983070983,"Working","OW287"
"2023-11-28 18:00",7.64966646866647,"Working","OW287"
"2023-11-28 19:00",7.68662310662311,"Working","OW287"
"2023-11-28 20:00",7.69357974457974,"Working","OW287"
"2023-11-28 21:00",7.68253638253638,"Working","OW287"
"2023-11-28 22:00",7.66349302049302,"Working","OW287"
"2023-11-28 23:00",7.63944965844966,"Working","OW287"
"2023-11-29 00:00",7.6164062964063,"Working","OW287"
"2023-11-29 01:00",7.59736293436293,"Working","OW287"
"2023-11-29 02:00",7.60931957231957,"Working","OW287"
"2023-11-29 03:00",7.61227621027621,"Working","OW287"
"2023-11-29 04:00",7.60123284823285,"Working","OW287"
"2023-11-29 05:00",7.61818948618949,"Working","OW287"
"2023-11-29 06:00",7.72714612414612,"Working","OW287"
"2023-11-29 07:00",7.76510276210276,"Working","OW287"
"2023-11-29 08:00",7.7610594000594,"Working","OW287"
"2023-11-29 09:00",7.74601603801604,"Working","OW287"
"2023-11-29 10:00",7.72197267597268,"Working","OW287"
"2023-11-29 11:00",7.69192931392931,"Working","OW287"
"2023-11-29 12:00",7.66088595188595,"Working","OW287"
"2023-11-29 13:00",7.64084258984259,"Working","OW287"
"2023-11-29 14:00",7.64579922779923,"Working","OW287"
"2023-11-29 15:00",7.63375586575587,"Working","OW287"
"2023-11-29 16:00",7.6127125037125,"Working","OW287"
"2023-11-29 17:00",7.59266914166914,"Working","OW287"
"2023-11-29 18:00",7.57262577962578,"Working","OW287"
"2023-11-29 19:00",7.56058241758242,"Working","OW287"
"2023-11-29 20:00",7.57653905553906,"Working","OW287"
"2023-11-29 21:00",7.57949569349569,"Working","OW287"
"2023-11-29 22:00",7.56945233145233,"Working","OW287"
"2023-11-29 23:00",7.55340896940897,"Working","OW287"
"2023-11-30 00:00",7.53436560736561,"Working","OW287"
"2023-11-30 01:00",7.51332224532224,"Working","OW287"
"2023-11-30 02:00",7.49527888327888,"Working","OW287"
"2023-11-30 03:00",7.47823552123552,"Working","OW287"
"2023-11-30 04:00",7.46219215919216,"Working","OW287"
"2023-11-30 05:00",7.4491487971488,"Working","OW287"
"2023-11-30 06:00",7.45210543510543,"Working","OW287"
"2023-11-30 07:00",7.48606207306207,"Working","OW287"
"2023-11-30 08:00",7.49901871101871,"Working","OW287"
"2023-11-30 09:00",7.49897534897535,"Working","OW287"
"2023-11-30 10:00",7.49693198693199,"Working","OW287"
"2023-11-30 11:00",7.51788862488863,"Working","OW287"
"2023-11-30 12:00",7.52184526284526,"Working","OW287"
"2023-11-30 13:00",7.5098019008019,"Working","OW287"
"2023-11-30 14:00",7.49075853875854,"Working","OW287"
"2023-11-30 15:00",7.46871517671518,"Working","OW287"
"2023-11-30 16:00",7.44467181467181,"Working","OW287"
"2023-11-30 17:00",7.44262845262845,"Working","OW287"
"2023-11-30 18:00",7.54458509058509,"Working","OW287"
"2023-11-30 19:00",7.69254172854173,"Working","OW287"
"2023-11-30 20:00",7.86849836649837,"Working","OW287"
"2023-11-30 21:00",7.99445500445501,"Working","OW287"
"2023-11-30 22:00",8.10941164241164,"Working","OW287"
"2023-11-30 23:00",8.12436828036828,"Working","OW287"
"2023-12-01 00:00",8.09832491832492,"Working","OW287"
"2023-12-01 01:00",8.04328155628156,"Working","OW287"
"2023-12-01 02:00",8.01323819423819,"Working","OW287"
"2023-12-01 03:00",7.97419483219483,"Working","OW287"
"2023-12-01 04:00",7.92015147015147,"Working","OW287"
"2023-12-01 05:00",7.86410810810811,"Working","OW287"
"2023-12-01 06:00",7.82306474606475,"Working","OW287"
"2023-12-01 07:00",7.83202138402138,"Working","OW287"
"2023-12-01 08:00",7.83297802197802,"Working","OW287"
"2023-12-01 09:00",7.80393465993466,"Working","OW287"
"2023-12-01 10:00",7.7628912978913,"Working","OW287"
"2023-12-01 11:00",7.74884793584794,"Working","OW287"
"2023-12-01 12:00",7.73180457380457,"Working","OW287"
"2023-12-01 13:00",7.69776121176121,"Working","OW287"
"2023-12-01 14:00",7.65771784971785,"Working","OW287"
"2023-12-01 15:00",7.61867448767449,"Working","OW287"
"2023-12-01 16:00",7.58063112563113,"Working","OW287"
"2023-12-01 17:00",7.54558776358776,"Working","OW287"
"2023-12-01 18:00",7.5175444015444,"Working","OW287"
"2023-12-01 19:00",7.51350103950104,"Working","OW287"
"2023-12-01 20:00",7.52545767745768,"Working","OW287"
"2023-12-01 21:00",7.52041431541432,"Working","OW287"
"2023-12-01 22:00",7.50337095337095,"Working","OW287"
"2023-12-01 23:00",7.48332759132759,"Working","OW287"
"2023-12-02 00:00",7.46128422928423,"Working","OW287"
"2023-12-02 01:00",7.47524086724087,"Working","OW287"
"2023-12-02 02:00",7.50819750519751,"Working","OW287"
"2023-12-02 03:00",7.53915414315414,"Working","OW287"
"2023-12-02 04:00",7.54311078111078,"Working","OW287"
"2023-12-02 05:00",7.53506741906742,"Working","OW287"
"2023-12-02 06:00",7.51602405702406,"Working","OW287"
"2023-12-02 07:00",7.52098069498069,"Working","OW287"
"2023-12-02 08:00",7.51693733293733,"Working","OW287"
"2023-12-02 09:00",7.49089397089397,"Working","OW287"
"2023-12-02 10:00",7.45885060885061,"Working","OW287"
"2023-12-02 11:00",7.42780724680725,"Working","OW287"
"2023-12-02 12:00",7.39876388476389,"Working","OW287"
"2023-12-02 13:00",7.38772052272052,"Working","OW287"
"2023-12-02 14:00",7.39767716067716,"Working","OW287"
"2023-12-02 15:00",7.3936337986338,"Working","OW287"
"2023-12-02 16:00",7.37959043659044,"Working","OW287"
"2023-12-02 17:00",7.36354707454707,"Working","OW287"
"2023-12-02 18:00",7.34650371250371,"Working","OW287"
"2023-12-02 19:00",7.33246035046035,"Working","OW287"
"2023-12-02 20:00",7.33241698841699,"Working","OW287"
"2023-12-02 21:00",7.35537362637363,"Working","OW287"
"2023-12-02 22:00",7.36433026433026,"Working","OW287"
"2023-12-02 23:00",7.3582869022869,"Working","OW287"
"2023-12-03 00:00",7.34624354024354,"Working","OW287"
"2023-12-03 01:00",7.33020017820018,"Working","OW287"
"2023-12-03 02:00",7.41415681615682,"Working","OW287"
"2023-12-03 03:00",7.59611345411345,"Working","OW287"
"2023-12-03 04:00",7.65907009207009,"Working","OW287"
"2023-12-03 05:00",7.66902673002673,"Working","OW287"
"2023-12-03 06:00",7.68898336798337,"Working","OW287"
"2023-12-03 07:00",7.68494000594001,"Working","OW287"
"2023-12-03 08:00",7.65789664389664,"Working","OW287"
"2023-12-03 09:00",7.61985328185328,"Working","OW287"
"2023-12-03 10:00",7.57680991980992,"Working","OW287"
"2023-12-03 11:00",7.53176655776656,"Working","OW287"
"2023-12-03 12:00",7.4867231957232,"Working","OW287"
"2023-12-03 13:00",7.44467983367983,"Working","OW287"
"2023-12-03 14:00",7.42363647163647,"Working","OW287"
"2023-12-03 15:00",7.42159310959311,"Working","OW287"
"2023-12-03 16:00",7.39854974754975,"Working","OW287"
"2023-12-03 17:00",7.36450638550639,"Working","OW287"
"2023-12-03 18:00",7.33746302346302,"Working","OW287"
"2023-12-03 19:00",7.34341966141966,"Working","OW287"
"2023-12-03 20:00",7.3603762993763,"Working","OW287"
"2023-12-03 21:00",7.35933293733294,"Working","OW287"
"2023-12-03 22:00",7.34428957528958,"Working","OW287"
"2023-12-03 23:00",7.32824621324621,"Working","OW287"
"2023-12-04 00:00",7.31320285120285,"Working","OW287"
"2023-12-04 01:00",7.29715948915949,"Working","OW287"
"2023-12-04 02:00",7.28311612711613,"Working","OW287"
"2023-12-04 03:00",7.27107276507277,"Working","OW287"
"2023-12-04 04:00",7.2590294030294,"Working","OW287"
"2023-12-04 05:00",7.31998604098604,"Working","OW287"
"2023-12-04 06:00",7.42794267894268,"Working","OW287"
"2023-12-04 07:00",7.46489931689932,"Working","OW287"
"2023-12-04 08:00",7.46885595485596,"Working","OW287"
"2023-12-04 09:00",7.45581259281259,"Working","OW287"
"2023-12-04 10:00",7.43276923076923,"Working","OW287"
"2023-12-04 11:00",7.42872586872587,"Working","OW287"
"2023-12-04 12:00",7.43168250668251,"Working","OW287"
"2023-12-04 13:00",7.41463914463914,"Working","OW287"
"2023-12-04 14:00",7.38659578259578,"Working","OW287"
"2023-12-04 15:00",7.35655242055242,"Working","OW287"
"2023-12-04 16:00",7.32250905850906,"Working","OW287"
"2023-12-04 17:00",7.2954656964657,"Working","OW287"
"2023-12-04 18:00",7.27342233442233,"Working","OW287"
"2023-12-04 19:00",7.29837897237897,"Working","OW287"
"2023-12-04 20:00",7.30733561033561,"Working","OW287"
"2023-12-04 21:00",7.33129224829225,"Working","OW287"
"2023-12-04 22:00",7.49624888624889,"Working","OW287"
"2023-12-04 23:00",7.55420552420552,"Working","OW287"
"2023-12-05 00:00",7.55416216216216,"Working","OW287"
"2023-12-05 01:00",7.5321188001188,"Working","OW287"
"2023-12-05 02:00",7.49007543807544,"Working","OW287"
"2023-12-05 03:00",7.48503207603208,"Working","OW287"
"2023-12-05 04:00",7.46298871398871,"Working","OW287"
"2023-12-05 05:00",7.43294535194535,"Working","OW287"
"2023-12-05 06:00",7.43090198990199,"Working","OW287"
"2023-12-05 07:00",7.41085862785863,"Working","OW287"
"2023-12-05 08:00",7.37981526581527,"Working","OW287"
"2023-12-05 09:00",7.3437719037719,"Working","OW287"
"2023-12-05 10:00",7.30772854172854,"Working","OW287"
"2023-12-05 11:00",7.27468517968518,"Working","OW287"
"2023-12-05 12:00",7.24464181764182,"Working","OW287"
"2023-12-05 13:00",7.21659845559846,"Working","OW287"
"2023-12-05 14:00",7.19255509355509,"Working","OW287"
"2023-12-05 15:00",7.21251173151173,"Working","OW287"
"2023-12-05 16:00",7.22046836946837,"Working","OW287"
"2023-12-05 17:00",7.21442500742501,"Working","OW287"
"2023-12-05 18:00",7.22838164538164,"Working","OW287"
"2023-12-05 19:00",7.25433828333828,"Working","OW287"
"2023-12-05 20:00",7.25629492129492,"Working","OW287"
"2023-12-05 21:00",7.24225155925156,"Working","OW287"
"2023-12-05 22:00",7.2212081972082,"Working","OW287"
"2023-12-05 23:00",7.19816483516484,"Working","OW287"
"2023-12-06 00:00",7.17712147312147,"Working","OW287"
"2023-12-06 01:00",7.15607811107811,"Working","OW287"
"2023-12-06 02:00",7.14003474903475,"Working","OW287"
"2023-12-06 03:00",7.12099138699139,"Working","OW287"
"2023-12-06 04:00",7.10294802494802,"Working","OW287"
"2023-12-06 05:00",7.08790466290466,"Working","OW287"
"2023-12-06 06:00",7.0728613008613,"Working","OW287"
"2023-12-06 07:00",7.05581793881794,"Working","OW287"
"2023-12-06 08:00",7.03777457677458,"Working","OW287"
"2023-12-06 09:00",7.01873121473121,"Working","OW287"
"2023-12-06 10:00",7.01268785268785,"Working","OW287"
"2023-12-06 11:00",7.03464449064449,"Working","OW287"
"2023-12-06 12:00",7.03360112860113,"Working","OW287"
"2023-12-06 13:00",7.01955776655777,"Working","OW287"
"2023-12-06 14:00",7.0005144045144,"Working","OW287"
"2023-12-06 15:00",6.98247104247104,"Working","OW287"
"2023-12-06 16:00",6.96242768042768,"Working","OW287"
"2023-12-06 17:00",6.94738431838432,"Working","OW287"
"2023-12-06 18:00",6.93434095634096,"Working","OW287"
"2023-12-06 19:00",6.92329759429759,"Working","OW287"
"2023-12-06 20:00",6.90825423225423,"Working","OW287"
"2023-12-06 21:00",6.89421087021087,"Working","OW287"
"2023-12-06 22:00",6.97116750816751,"Working","OW287"
"2023-12-06 23:00",7.05912414612415,"Working","OW287"
"2023-12-07 00:00",7.08008078408078,"Working","OW287"
"2023-12-07 01:00",7.07303742203742,"Working","OW287"
"2023-12-07 02:00",7.05099405999406,"Working","OW287"
"2023-12-07 03:00",7.0229506979507,"Working","OW287"
"2023-12-07 04:00",6.99390733590734,"Working","OW287"
"2023-12-07 05:00",6.96786397386397,"Working","OW287"
"2023-12-07 06:00",6.98582061182061,"Working","OW287"
"2023-12-07 07:00",7.00977724977725,"Working","OW287"
"2023-12-07 08:00",7.04373388773389,"Working","OW287"
"2023-12-07 09:00",7.04869052569053,"Working","OW287"
"2023-12-07 10:00",7.03364716364716,"Working","OW287"
"2023-12-07 11:00",7.0116038016038,"Working","OW287"
"2023-12-07 12:00",7.01856043956044,"Working","OW287"
"2023-12-07 13:00",7.02451707751708,"Working","OW287"
"2023-12-07 14:00",7.01147371547372,"Working","OW287"
"2023-12-07 15:00",6.99043035343035,"Working","OW287"
"2023-12-07 16:00",6.96738699138699,"Working","OW287"
"2023-12-07 17:00",6.95734362934363,"Working","OW287"
"2023-12-07 18:00",6.98330026730027,"Working","OW287"
"2023-12-07 19:00",6.99125690525691,"Working","OW287"
"2023-12-07 20:00",7.00421354321354,"Working","OW287"
"2023-12-07 21:00",7.02517018117018,"Working","OW287"
"2023-12-07 22:00",7.02612681912682,"Working","OW287"
"2023-12-07 23:00",7.01408345708346,"Working","OW287"
"2023-12-08 00:00",6.99904009504009,"Working","OW287"
"2023-12-08 01:00",6.98199673299673,"Working","OW287"
"2023-12-08 02:00",6.97195337095337,"Working","OW287"
"2023-12-08 03:00",7.00791000891001,"Working","OW287"
"2023-12-08 04:00",7.05386664686665,"Working","OW287"
"2023-12-08 05:00",7.06582328482328,"Working","OW287"
"2023-12-08 06:00",7.06077992277992,"Working","OW287"
"2023-12-08 07:00",7.04873656073656,"Working","OW287"
"2023-12-08 08:00",7.0346931986932,"Working","OW287"
"2023-12-08 09:00",7.05764983664984,"Working","OW287"
"2023-12-08 10:00",7.06960647460647,"Working","OW287"
"2023-12-08 11:00",7.06956311256311,"Working","OW287"
"2023-12-08 12:00",7.09751975051975,"Working","OW287"
"2023-12-08 13:00",7.10347638847639,"Working","OW287"
"2023-12-08 14:00",7.09543302643303,"Working","OW287"
"2023-12-08 15:00",7.08038966438966,"Working","OW287"
"2023-12-08 16:00",7.0653463023463,"Working","OW287"
"2023-12-08 17:00",7.05330294030294,"Working","OW287"
"2023-12-08 18:00",7.04625957825958,"Working","OW287"
"2023-12-08 19:00",7.06521621621622,"Working","OW287"
"2023-12-08 20:00",7.18617285417285,"Working","OW287"
"2023-12-08 21:00",7.24412949212949,"Working","OW287"
"2023-12-08 22:00",7.25608613008613,"Working","OW287"
"2023-12-08 23:00",7.24704276804277,"Working","OW287"
"2023-12-09 00:00",7.22899940599941,"Working","OW287"
"2023-12-09 01:00",7.20595604395604,"Working","OW287"
"2023-12-09 02:00",7.18191268191268,"Working","OW287"
"2023-12-09 03:00",7.15686931986932,"Working","OW287"
"2023-12-09 04:00",7.13482595782596,"Working","OW287"
"2023-12-09 05:00",7.1147825957826,"Working","OW287"
"2023-12-09 06:00",7.10673923373923,"Working","OW287"
"2023-12-09 07:00",7.13769587169587,"Working","OW287"
"2023-12-09 08:00",7.14765250965251,"Working","OW287"
"2023-12-09 09:00",7.14060914760915,"Working","OW287"
"2023-12-09 10:00",7.12556578556579,"Working","OW287"
"2023-12-09 11:00",7.10852242352242,"Working","OW287"
"2023-12-09 12:00",7.08947906147906,"Working","OW287"
"2023-12-09 13:00",7.0754356994357,"Working","OW287"
"2023-12-09 14:00",7.05339233739234,"Working","OW287"
"2023-12-09 15:00",7.03134897534898,"Working","OW287"
"2023-12-09 16:00",7.00930561330561,"Working","OW287"
"2023-12-09 17:00",6.99226225126225,"Working","OW287"
"2023-12-09 18:00",6.98221888921889,"Working","OW287"
"2023-12-09 19:00",7.13917552717553,"Working","OW287"
"2023-12-09 20:00",7.24813216513216,"Working","OW287"
"2023-12-09 21:00",7.3980888030888,"Working","OW287"
"2023-12-09 22:00",7.59504544104544,"Working","OW287"
"2023-12-09 23:00",7.65900207900208,"Working","OW287"
"2023-12-10 00:00",7.74595871695872,"Working","OW287"
"2023-12-10 01:00",7.81491535491535,"Working","OW287"
"2023-12-10 02:00",7.84187199287199,"Working","OW287"
"2023-12-10 03:00",7.83882863082863,"Working","OW287"
"2023-12-10 04:00",7.82678526878527,"Working","OW287"
"2023-12-10 05:00",7.80274190674191,"Working","OW287"
"2023-12-10 06:00",7.77469854469854,"Working","OW287"
"2023-12-10 07:00",7.74965518265518,"Working","OW287"
"2023-12-10 08:00",7.72461182061182,"Working","OW287"
"2023-12-10 09:00",7.67956845856846,"Working","OW287"
"2023-12-10 10:00",7.6205250965251,"Working","OW287"
"2023-12-10 11:00",7.57248173448173,"Working","OW287"
"2023-12-10 12:00",7.55443837243837,"Working","OW287"
"2023-12-10 13:00",7.53539501039501,"Working","OW287"
"2023-12-10 14:00",7.50135164835165,"Working","OW287"
"2023-12-10 15:00",7.46430828630829,"Working","OW287"
"2023-12-10 16:00",7.42326492426492,"Working","OW287"
"2023-12-10 17:00",7.38522156222156,"Working","OW287"
"2023-12-10 18:00",7.3521782001782,"Working","OW287"
"2023-12-10 19:00",7.41713483813484,"Working","OW287"
"2023-12-10 20:00",7.53409147609148,"Working","OW287"
"2023-12-10 21:00",7.56404811404811,"Working","OW287"
"2023-12-10 22:00",7.58600475200475,"Working","OW287"
"2023-12-10 23:00",7.66496138996139,"Working","OW287"
"2023-12-11 00:00",7.69191802791803,"Working","OW287"
"2023-12-11 01:00",7.77987466587467,"Working","OW287"
"2023-12-11 02:00",7.8228313038313,"Working","OW287"
"2023-12-11 03:00",7.82678794178794,"Working","OW287"
"2023-12-11 04:00",7.79874457974458,"Working","OW287"
"2023-12-11 05:00",7.75770121770122,"Working","OW287"
"2023-12-11 06:00",7.73065785565786,"Working","OW287"
"2023-12-11 07:00",7.71361449361449,"Working","OW287"
"2023-12-11 08:00",7.68757113157113,"Working","OW287"
"2023-12-11 09:00",7.64952776952777,"Working","OW287"
"2023-12-11 10:00",7.60748440748441,"Working","OW287"
"2023-12-11 11:00",7.56644104544105,"Working","OW287"
"2023-12-11 12:00",7.54139768339768,"Working","OW287"
"2023-12-11 13:00",7.52335432135432,"Working","OW287"
"2023-12-11 14:00",7.49231095931096,"Working","OW287"
"2023-12-11 15:00",7.4652675972676,"Working","OW287"
"2023-12-11 16:00",7.45522423522424,"Working","OW287"
"2023-12-11 17:00",7.43718087318087,"Working","OW287"
"2023-12-11 18:00",7.42813751113751,"Working","OW287"